N202PY EDRK-EHSE

Flight info

Callsign N202PY
Flight time 1h 49m
Altitude 4000
Route 5008N00710E 4959N00706E 4958N00653E 5003N00629E 5026N00551E 5034N00532E 5044N00523E 5116N00448E DCT 5131N00432E
Aircraft C172/L-SFG/C

Departure

Time 2026-04-18 13:05
Airport Koblenz-Winningen Airfield (EDRK)

Arrival

Time 2026-04-18 14:54
Airport Breda International Airport (EHSE)
Time Latitude Longitude Altitude Speed Heading
2026-04-18 12:54 50.32355 7.52674 653 ft 0 kts 326°
2026-04-18 13:00 50.32371 7.52653 649 ft 7 kts 267°
2026-04-18 13:00 50.32331 7.52553 649 ft 13 kts 237°
2026-04-18 13:00 50.32284 7.52434 648 ft 12 kts 254°
2026-04-18 13:01 50.32264 7.52312 650 ft 11 kts 251°
2026-04-18 13:01 50.32242 7.52224 650 ft 5 kts 251°
2026-04-18 13:01 50.32242 7.52216 650 ft 0 kts 283°
2026-04-18 13:03 50.32238 7.52185 650 ft 9 kts 250°
2026-04-18 13:03 50.32250 7.52136 649 ft 0 kts 57°
2026-04-18 13:03 50.32262 7.52166 650 ft 18 kts 58°
2026-04-18 13:04 50.32417 7.52541 650 ft 62 kts 57°
2026-04-18 13:04 50.32694 7.53211 721 ft 79 kts 56°
2026-04-18 13:04 50.33003 7.53922 933 ft 75 kts 52°
2026-04-18 13:04 50.33308 7.54608 1118 ft 79 kts 71°
2026-04-18 13:05 50.33169 7.55449 1231 ft 89 kts 133°
2026-04-18 13:05 50.32634 7.55961 1382 ft 91 kts 153°
2026-04-18 13:05 50.32030 7.55989 1519 ft 90 kts 209°
2026-04-18 13:05 50.31627 7.55266 1664 ft 92 kts 247°
2026-04-18 13:06 50.31324 7.54363 1787 ft 98 kts 242°
2026-04-18 13:06 50.30953 7.53500 2045 ft 94 kts 240°
2026-04-18 13:06 50.30565 7.52621 2168 ft 103 kts 239°
2026-04-18 13:06 50.30255 7.51579 2160 ft 108 kts 255°
2026-04-18 13:07 50.30008 7.50444 2242 ft 111 kts 254°
2026-04-18 13:07 50.29727 7.49298 2323 ft 114 kts 245°
2026-04-18 13:07 50.29214 7.48361 2412 ft 115 kts 221°
2026-04-18 13:07 50.28569 7.47594 2457 ft 116 kts 221°
2026-04-18 13:08 50.27911 7.46858 2488 ft 120 kts 218°
2026-04-18 13:08 50.27180 7.46197 2576 ft 120 kts 214°
2026-04-18 13:08 50.26450 7.45560 2624 ft 120 kts 215°
2026-04-18 13:08 50.25734 7.44893 2663 ft 119 kts 219°
2026-04-18 13:09 50.25280 7.44429 2686 ft 117 kts 221°
2026-04-18 13:09 50.24621 7.43682 2662 ft 116 kts 223°
2026-04-18 13:09 50.23968 7.42914 2627 ft 120 kts 222°
2026-04-18 13:09 50.23306 7.42129 2684 ft 117 kts 224°
2026-04-18 13:10 50.22696 7.41306 2700 ft 115 kts 226°
2026-04-18 13:10 50.22106 7.40468 2715 ft 114 kts 229°
2026-04-18 13:10 50.21531 7.39614 2702 ft 116 kts 228°
2026-04-18 13:10 50.20938 7.38780 2743 ft 112 kts 228°
2026-04-18 13:11 50.20291 7.38100 2795 ft 114 kts 214°
2026-04-18 13:11 50.19573 7.37527 2768 ft 117 kts 215°
2026-04-18 13:11 50.19079 7.36637 2801 ft 107 kts 259°
2026-04-18 13:11 50.18892 7.35512 2766 ft 108 kts 260°
2026-04-18 13:12 50.18717 7.34358 2758 ft 110 kts 260°
2026-04-18 13:12 50.18518 7.33233 2851 ft 107 kts 258°
2026-04-18 13:12 50.18318 7.32104 2827 ft 109 kts 259°
2026-04-18 13:12 50.18147 7.30966 2851 ft 106 kts 259°
2026-04-18 13:13 50.17947 7.29859 2804 ft 109 kts 257°
2026-04-18 13:13 50.17726 7.28732 2823 ft 109 kts 258°
2026-04-18 13:13 50.17541 7.27588 2894 ft 108 kts 261°
2026-04-18 13:13 50.17404 7.26411 2879 ft 112 kts 264°
2026-04-18 13:14 50.17263 7.25236 2911 ft 111 kts 261°
2026-04-18 13:14 50.17107 7.24048 2851 ft 113 kts 262°
2026-04-18 13:14 50.16954 7.22850 2921 ft 111 kts 261°
2026-04-18 13:14 50.16844 7.21619 2825 ft 116 kts 269°
2026-04-18 13:15 50.16852 7.20374 2811 ft 114 kts 273°
2026-04-18 13:15 50.16874 7.19165 2808 ft 110 kts 274°
2026-04-18 13:15 50.16856 7.17991 2830 ft 111 kts 261°
2026-04-18 13:15 50.16561 7.16853 2829 ft 112 kts 243°
2026-04-18 13:16 50.16067 7.15950 2937 ft 110 kts 223°
2026-04-18 13:16 50.15347 7.15355 2816 ft 124 kts 201°
2026-04-18 13:16 50.14488 7.15252 2817 ft 124 kts 175°
2026-04-18 13:16 50.13677 7.15723 2758 ft 127 kts 156°
2026-04-18 13:17 50.12904 7.16363 2765 ft 124 kts 154°
2026-04-18 13:17 50.12067 7.16589 2669 ft 123 kts 192°
2026-04-18 13:17 50.11230 7.16298 2618 ft 123 kts 201°
2026-04-18 13:17 50.10424 7.15919 2675 ft 119 kts 203°
2026-04-18 13:18 50.09634 7.15531 2672 ft 118 kts 204°
2026-04-18 13:18 50.08853 7.15112 2662 ft 118 kts 204°
2026-04-18 13:18 50.08072 7.14696 2663 ft 118 kts 204°
2026-04-18 13:18 50.07293 7.14279 2662 ft 117 kts 203°
2026-04-18 13:19 50.06542 7.13850 2656 ft 115 kts 204°
2026-04-18 13:19 50.05757 7.13419 2672 ft 121 kts 204°
2026-04-18 13:19 50.04950 7.12978 2658 ft 125 kts 204°
2026-04-18 13:19 50.04133 7.12526 2663 ft 125 kts 205°
2026-04-18 13:20 50.03308 7.12093 2665 ft 125 kts 205°
2026-04-18 13:20 50.02440 7.11907 2656 ft 130 kts 182°
2026-04-18 13:20 50.01548 7.11962 2656 ft 126 kts 183°
2026-04-18 13:20 50.00674 7.12035 2727 ft 124 kts 183°
2026-04-18 13:21 49.99830 7.12109 2865 ft 119 kts 182°
2026-04-18 13:21 49.99013 7.12184 3009 ft 117 kts 183°
2026-04-18 13:21 49.98188 7.12428 3011 ft 123 kts 167°
2026-04-18 13:21 49.97365 7.12799 3012 ft 123 kts 167°
2026-04-18 13:22 49.96544 7.13145 3013 ft 122 kts 177°
2026-04-18 13:22 49.95883 7.12650 3020 ft 106 kts 252°
2026-04-18 13:22 49.95825 7.11542 3037 ft 105 kts 273°
2026-04-18 13:22 49.95821 7.10350 3025 ft 112 kts 274°
2026-04-18 13:23 49.95826 7.09144 3013 ft 109 kts 274°
2026-04-18 13:23 49.95825 7.07972 3017 ft 109 kts 273°
2026-04-18 13:23 49.95823 7.06766 3015 ft 113 kts 274°
2026-04-18 13:23 49.95819 7.05548 3028 ft 116 kts 274°
2026-04-18 13:24 49.95815 7.04277 3024 ft 116 kts 273°
2026-04-18 13:24 49.95813 7.03020 3019 ft 118 kts 274°
2026-04-18 13:24 49.95822 7.01767 3016 ft 115 kts 278°
2026-04-18 13:24 49.95990 7.00591 3012 ft 111 kts 287°
2026-04-18 13:25 49.96166 6.99436 3006 ft 109 kts 287°
2026-04-18 13:25 49.96333 6.98303 3008 ft 107 kts 286°
2026-04-18 13:25 49.96510 6.97158 3009 ft 109 kts 286°
2026-04-18 13:25 49.96692 6.96001 3016 ft 114 kts 286°
2026-04-18 13:26 49.96883 6.94804 3017 ft 114 kts 286°
2026-04-18 13:26 49.97082 6.93585 3013 ft 117 kts 286°
2026-04-18 13:26 49.97195 6.92333 3008 ft 117 kts 277°
2026-04-18 13:26 49.97269 6.91079 3019 ft 117 kts 277°
2026-04-18 13:27 49.97327 6.89797 3013 ft 120 kts 276°
2026-04-18 13:27 49.97407 6.88512 3041 ft 116 kts 283°
2026-04-18 13:27 49.97803 6.87579 3247 ft 101 kts 329°
2026-04-18 13:27 49.98497 6.87511 3369 ft 106 kts 17°
2026-04-18 13:28 49.99032 6.88311 3525 ft 112 kts 67°
2026-04-18 13:28 49.98998 6.89498 3674 ft 115 kts 116°
2026-04-18 13:28 49.98409 6.90302 3789 ft 115 kts 166°
2026-04-18 13:28 49.97647 6.90193 3949 ft 110 kts 215°
2026-04-18 13:29 49.97206 6.89308 4036 ft 106 kts 258°
2026-04-18 13:29 49.97257 6.88186 3997 ft 107 kts 289°
2026-04-18 13:29 49.97509 6.87076 4004 ft 110 kts 292°
2026-04-18 13:29 49.97782 6.85984 4006 ft 109 kts 292°
2026-04-18 13:30 49.98041 6.84887 4002 ft 106 kts 292°
2026-04-18 13:30 49.98289 6.83821 4000 ft 105 kts 291°
2026-04-18 13:30 49.98552 6.82769 3993 ft 104 kts 292°
2026-04-18 13:30 49.98818 6.81732 3993 ft 103 kts 292°
2026-04-18 13:31 49.99088 6.80692 3993 ft 104 kts 291°
2026-04-18 13:31 49.99363 6.79622 4004 ft 109 kts 292°
2026-04-18 13:31 49.99647 6.78512 4003 ft 111 kts 291°
2026-04-18 13:31 49.99934 6.77393 4010 ft 113 kts 292°
2026-04-18 13:32 50.00228 6.76255 4005 ft 114 kts 292°
2026-04-18 13:32 50.00517 6.75140 4003 ft 108 kts 292°
2026-04-18 13:32 50.00797 6.74061 4000 ft 107 kts 291°
2026-04-18 13:32 50.01075 6.72998 3999 ft 106 kts 292°
2026-04-18 13:33 50.01354 6.71917 3992 ft 108 kts 292°
2026-04-18 13:33 50.01631 6.70853 4002 ft 108 kts 292°
2026-04-18 13:33 50.01906 6.69775 3995 ft 107 kts 292°
2026-04-18 13:33 50.02180 6.68691 3996 ft 109 kts 292°
2026-04-18 13:34 50.02460 6.67592 4001 ft 109 kts 292°
2026-04-18 13:34 50.02732 6.66494 4002 ft 109 kts 291°
2026-04-18 13:34 50.03011 6.65373 4007 ft 113 kts 292°
2026-04-18 13:34 50.03297 6.64236 4007 ft 111 kts 292°
2026-04-18 13:35 50.03572 6.63137 4002 ft 107 kts 292°
2026-04-18 13:35 50.03837 6.62065 4003 ft 106 kts 292°
2026-04-18 13:35 50.04111 6.60975 4007 ft 111 kts 291°
2026-04-18 13:35 50.04391 6.59855 3997 ft 110 kts 292°
2026-04-18 13:36 50.04653 6.58761 3995 ft 106 kts 292°
2026-04-18 13:36 50.04913 6.57700 3991 ft 105 kts 291°
2026-04-18 13:36 50.05170 6.56650 3996 ft 103 kts 291°
2026-04-18 13:36 50.05435 6.55596 3984 ft 110 kts 291°
2026-04-18 13:37 50.05715 6.54482 3979 ft 110 kts 292°
2026-04-18 13:37 50.05992 6.53376 3982 ft 109 kts 291°
2026-04-18 13:37 50.06271 6.52276 3983 ft 111 kts 291°
2026-04-18 13:37 50.06551 6.51127 3983 ft 115 kts 291°
2026-04-18 13:38 50.06845 6.49951 3985 ft 117 kts 291°
2026-04-18 13:38 50.07136 6.48786 3979 ft 115 kts 292°
2026-04-18 13:38 50.07426 6.47600 3976 ft 120 kts 291°
2026-04-18 13:38 50.07727 6.46397 3977 ft 118 kts 291°
2026-04-18 13:39 50.08018 6.45219 3977 ft 117 kts 291°
2026-04-18 13:39 50.08407 6.44112 3976 ft 117 kts 310°
2026-04-18 13:39 50.08962 6.43208 3974 ft 115 kts 312°
2026-04-18 13:39 50.09518 6.42294 3972 ft 116 kts 313°
2026-04-18 13:40 50.10072 6.41371 3973 ft 117 kts 312°
2026-04-18 13:40 50.10622 6.40462 3977 ft 116 kts 312°
2026-04-18 13:40 50.11180 6.39543 3981 ft 117 kts 312°
2026-04-18 13:40 50.11740 6.38635 3981 ft 116 kts 313°
2026-04-18 13:41 50.12298 6.37717 3987 ft 118 kts 312°
2026-04-18 13:41 50.12865 6.36785 3986 ft 120 kts 313°
2026-04-18 13:41 50.13437 6.35848 3989 ft 119 kts 312°
2026-04-18 13:41 50.14004 6.34919 3985 ft 118 kts 312°
2026-04-18 13:42 50.14575 6.33985 3989 ft 120 kts 313°
2026-04-18 13:42 50.15153 6.33022 3991 ft 123 kts 312°
2026-04-18 13:42 50.15739 6.32043 3989 ft 123 kts 312°
2026-04-18 13:42 50.16329 6.31066 3987 ft 124 kts 311°
2026-04-18 13:43 50.16920 6.30085 3987 ft 124 kts 312°
2026-04-18 13:43 50.17507 6.29094 3987 ft 125 kts 312°
2026-04-18 13:43 50.18098 6.28096 3994 ft 126 kts 312°
2026-04-18 13:43 50.18700 6.27084 3987 ft 128 kts 312°
2026-04-18 13:44 50.19307 6.26082 3983 ft 126 kts 312°
2026-04-18 13:44 50.19903 6.25106 3975 ft 123 kts 311°
2026-04-18 13:44 50.20488 6.24148 3989 ft 121 kts 311°
2026-04-18 13:44 50.21075 6.23213 3988 ft 120 kts 312°
2026-04-18 13:45 50.21651 6.22277 3989 ft 119 kts 312°
2026-04-18 13:45 50.22216 6.21344 3988 ft 118 kts 311°
2026-04-18 13:45 50.22773 6.20439 3988 ft 117 kts 312°
2026-04-18 13:45 50.23334 6.19529 3987 ft 115 kts 311°
2026-04-18 13:46 50.23893 6.18633 3990 ft 115 kts 313°
2026-04-18 13:46 50.24437 6.17729 3992 ft 114 kts 311°
2026-04-18 13:46 50.24985 6.16831 3990 ft 114 kts 311°
2026-04-18 13:46 50.25536 6.15937 3991 ft 114 kts 312°
2026-04-18 13:47 50.26080 6.15034 3996 ft 113 kts 312°
2026-04-18 13:47 50.26617 6.14143 3992 ft 112 kts 311°
2026-04-18 13:47 50.27159 6.13271 3991 ft 112 kts 311°
2026-04-18 13:47 50.27709 6.12392 3994 ft 114 kts 312°
2026-04-18 13:48 50.28264 6.11510 3997 ft 113 kts 312°
2026-04-18 13:48 50.28816 6.10646 3996 ft 111 kts 312°
2026-04-18 13:48 50.29363 6.09786 3994 ft 112 kts 312°
2026-04-18 13:48 50.29916 6.08907 3994 ft 114 kts 312°
2026-04-18 13:49 50.30465 6.08023 4004 ft 115 kts 311°
2026-04-18 13:49 50.31022 6.07136 4007 ft 114 kts 311°
2026-04-18 13:49 50.31578 6.06248 4001 ft 115 kts 311°
2026-04-18 13:49 50.32132 6.05352 4002 ft 114 kts 311°
2026-04-18 13:50 50.32686 6.04455 4005 ft 114 kts 311°
2026-04-18 13:50 50.33236 6.03561 4002 ft 114 kts 311°
2026-04-18 13:50 50.33782 6.02685 4007 ft 112 kts 311°
2026-04-18 13:50 50.34383 6.01887 4007 ft 115 kts 320°
2026-04-18 13:51 50.35003 6.01095 4010 ft 115 kts 318°
2026-04-18 13:51 50.35683 6.00405 4013 ft 120 kts 330°
2026-04-18 13:51 50.36448 5.99836 4009 ft 123 kts 331°
2026-04-18 13:51 50.37228 5.99269 4005 ft 123 kts 330°
2026-04-18 13:52 50.37999 5.98683 4012 ft 125 kts 330°
2026-04-18 13:52 50.38799 5.98071 4013 ft 131 kts 331°
2026-04-18 13:52 50.39612 5.97436 4010 ft 129 kts 330°
2026-04-18 13:52 50.40396 5.96832 3991 ft 121 kts 330°
2026-04-18 13:53 50.41109 5.96303 3980 ft 113 kts 330°
2026-04-18 13:53 50.41794 5.95780 3923 ft 108 kts 329°
2026-04-18 13:53 50.42452 5.95244 3822 ft 109 kts 327°
2026-04-18 13:53 50.43119 5.94687 3674 ft 110 kts 330°
2026-04-18 13:54 50.43800 5.94084 3498 ft 113 kts 327°
2026-04-18 13:54 50.44481 5.93447 3371 ft 115 kts 327°
2026-04-18 13:54 50.45153 5.92823 3285 ft 112 kts 330°
2026-04-18 13:54 50.45908 5.92405 3010 ft 116 kts 343°
2026-04-18 13:55 50.46638 5.92721 2789 ft 120 kts 43°
2026-04-18 13:55 50.47157 5.93675 2688 ft 110 kts 43°
2026-04-18 13:55 50.47655 5.94569 2599 ft 108 kts 42°
2026-04-18 13:55 50.48175 5.95378 2536 ft 100 kts 17°
2026-04-18 13:56 50.48823 5.95140 2435 ft 100 kts 325°
2026-04-18 13:56 50.49350 5.94478 2342 ft 100 kts 315°
2026-04-18 13:56 50.49367 5.93434 2133 ft 110 kts 246°
2026-04-18 13:56 50.49039 5.92803 1898 ft 115 kts 233°
2026-04-18 13:57 50.48517 5.91877 1567 ft 110 kts 232°
2026-04-18 13:57 50.48035 5.91035 1567 ft 97 kts 234°
2026-04-18 13:57 50.47631 5.90233 1829 ft 92 kts 234°
2026-04-18 13:57 50.47186 5.89438 2018 ft 98 kts 236°
2026-04-18 13:58 50.46744 5.88627 2270 ft 96 kts 238°
2026-04-18 13:58 50.46329 5.87808 2497 ft 95 kts 240°
2026-04-18 13:58 50.45927 5.87006 2827 ft 90 kts 243°
2026-04-18 13:58 50.45854 5.86080 3016 ft 88 kts 285°
2026-04-18 13:59 50.46026 5.85150 3210 ft 90 kts 289°
2026-04-18 13:59 50.46198 5.84176 3394 ft 94 kts 283°
2026-04-18 13:59 50.46376 5.83184 3534 ft 98 kts 287°
2026-04-18 13:59 50.46560 5.82125 3632 ft 101 kts 284°
2026-04-18 14:00 50.46762 5.81067 3692 ft 104 kts 288°
2026-04-18 14:00 50.47037 5.79995 3774 ft 106 kts 294°
2026-04-18 14:00 50.47364 5.78916 3671 ft 114 kts 297°
2026-04-18 14:00 50.47756 5.77827 3542 ft 115 kts 300°
2026-04-18 14:01 50.48157 5.76776 3443 ft 110 kts 299°
2026-04-18 14:01 50.48572 5.75782 3361 ft 109 kts 303°
2026-04-18 14:01 50.48988 5.74806 3316 ft 105 kts 303°
2026-04-18 14:01 50.49412 5.73864 3230 ft 106 kts 306°
2026-04-18 14:02 50.49853 5.72923 3151 ft 107 kts 307°
2026-04-18 14:02 50.50298 5.71949 3039 ft 113 kts 304°
2026-04-18 14:02 50.50738 5.70949 3029 ft 109 kts 306°
2026-04-18 14:02 50.51180 5.69976 3028 ft 108 kts 306°
2026-04-18 14:03 50.51626 5.69037 3021 ft 106 kts 305°
2026-04-18 14:03 50.52074 5.68099 3014 ft 110 kts 306°
2026-04-18 14:03 50.52543 5.67121 3021 ft 114 kts 306°
2026-04-18 14:03 50.53019 5.66120 3023 ft 115 kts 306°
2026-04-18 14:04 50.53495 5.65117 3029 ft 114 kts 306°
2026-04-18 14:04 50.53957 5.64137 3027 ft 111 kts 303°
2026-04-18 14:04 50.54361 5.63139 3022 ft 106 kts 302°
2026-04-18 14:04 50.54752 5.62167 3015 ft 105 kts 302°
2026-04-18 14:05 50.55147 5.61176 3022 ft 109 kts 301°
2026-04-18 14:05 50.55553 5.60159 3032 ft 110 kts 302°
2026-04-18 14:05 50.55977 5.59108 3028 ft 118 kts 301°
2026-04-18 14:05 50.56408 5.58017 3036 ft 116 kts 301°
2026-04-18 14:06 50.56835 5.56969 3024 ft 109 kts 301°
2026-04-18 14:06 50.57253 5.55978 3030 ft 109 kts 299°
2026-04-18 14:06 50.57508 5.54867 3023 ft 107 kts 285°
2026-04-18 14:06 50.57733 5.53737 3025 ft 109 kts 286°
2026-04-18 14:07 50.57942 5.52592 3020 ft 109 kts 285°
2026-04-18 14:07 50.58150 5.51444 3023 ft 109 kts 285°
2026-04-18 14:07 50.58376 5.50290 3037 ft 113 kts 285°
2026-04-18 14:07 50.58697 5.49121 3013 ft 120 kts 304°
2026-04-18 14:08 50.59849 5.47085 2706 ft 126 kts 312°
2026-04-18 14:08 50.60444 5.46093 2520 ft 128 kts 313°
2026-04-18 14:08 50.60840 5.44898 2354 ft 122 kts 282°
2026-04-18 14:09 50.61014 5.43595 2080 ft 122 kts 284°
2026-04-18 14:09 50.61266 5.42314 1830 ft 118 kts 296°
2026-04-18 14:09 50.61911 5.41755 1393 ft 120 kts 11°
2026-04-18 14:09 50.62574 5.42612 907 ft 123 kts 41°
2026-04-18 14:10 50.63136 5.43508 759 ft 109 kts 36°
2026-04-18 14:10 50.63676 5.44333 743 ft 107 kts 39°
2026-04-18 14:10 50.64199 5.45163 753 ft 105 kts 38°
2026-04-18 14:10 50.64726 5.45967 893 ft 103 kts 40°
2026-04-18 14:11 50.65205 5.46749 1111 ft 98 kts 42°
2026-04-18 14:11 50.65670 5.47556 1253 ft 100 kts 43°
2026-04-18 14:11 50.66183 5.48272 1450 ft 95 kts 17°
2026-04-18 14:11 50.66842 5.48401 1566 ft 96 kts 359°
2026-04-18 14:12 50.67494 5.48272 1702 ft 97 kts 331°
2026-04-18 14:12 50.68087 5.47764 1838 ft 95 kts 330°
2026-04-18 14:12 50.68657 5.47260 1960 ft 93 kts 329°
2026-04-18 14:12 50.69213 5.46743 2068 ft 96 kts 326°
2026-04-18 14:13 50.69769 5.46193 2211 ft 92 kts 325°
2026-04-18 14:13 50.70314 5.45644 2262 ft 92 kts 324°
2026-04-18 14:13 50.70875 5.45097 2289 ft 98 kts 325°
2026-04-18 14:13 50.71466 5.44518 2321 ft 104 kts 327°
2026-04-18 14:14 50.72099 5.43939 2321 ft 109 kts 327°
2026-04-18 14:14 50.72760 5.43302 2316 ft 111 kts 326°
2026-04-18 14:14 50.73416 5.42642 2323 ft 114 kts 325°
2026-04-18 14:14 50.74075 5.41970 2432 ft 112 kts 326°
2026-04-18 14:15 50.74747 5.41335 2453 ft 113 kts 328°
2026-04-18 14:15 50.75428 5.40694 2458 ft 115 kts 327°
2026-04-18 14:15 50.76141 5.40048 2408 ft 119 kts 327°
2026-04-18 14:15 50.76851 5.39425 2406 ft 115 kts 328°
2026-04-18 14:16 50.77548 5.38819 2390 ft 112 kts 328°
2026-04-18 14:16 50.78205 5.38251 2391 ft 103 kts 327°
2026-04-18 14:16 50.78847 5.37695 2402 ft 109 kts 327°
2026-04-18 14:16 50.79516 5.37094 2407 ft 112 kts 327°
2026-04-18 14:17 50.80195 5.36479 2407 ft 113 kts 327°
2026-04-18 14:17 50.80863 5.35863 2408 ft 113 kts 327°
2026-04-18 14:17 50.82235 5.34600 2408 ft 114 kts 326°
2026-04-18 14:18 50.83636 5.33355 2406 ft 117 kts 327°
2026-04-18 14:18 50.84344 5.32714 2406 ft 118 kts 327°
2026-04-18 14:19 50.85758 5.31429 2403 ft 116 kts 327°
2026-04-18 14:19 50.86449 5.30775 2401 ft 115 kts 326°
2026-04-18 14:19 50.87839 5.29509 2401 ft 116 kts 327°
2026-04-18 14:20 50.88533 5.28858 2401 ft 116 kts 326°
2026-04-18 14:20 50.89213 5.28185 2396 ft 115 kts 321°
2026-04-18 14:20 50.89860 5.27456 2397 ft 114 kts 321°
2026-04-18 14:20 50.90501 5.26725 2397 ft 113 kts 321°
2026-04-18 14:21 50.91137 5.25992 2397 ft 112 kts 321°
2026-04-18 14:21 50.91765 5.25273 2393 ft 111 kts 321°
2026-04-18 14:21 50.92390 5.24547 2400 ft 113 kts 321°
2026-04-18 14:22 50.93669 5.23046 2409 ft 117 kts 321°
2026-04-18 14:22 50.94340 5.22273 2407 ft 121 kts 322°
2026-04-18 14:22 50.95754 5.20645 2413 ft 130 kts 322°
2026-04-18 14:23 50.96504 5.19799 2410 ft 134 kts 322°
2026-04-18 14:23 50.98019 5.18036 2409 ft 135 kts 321°
2026-04-18 14:23 50.98774 5.17154 2409 ft 135 kts 322°
2026-04-18 14:24 51.00272 5.15369 2404 ft 134 kts 322°
2026-04-18 14:24 51.01010 5.14473 2407 ft 133 kts 321°
2026-04-18 14:24 51.01749 5.13595 2402 ft 131 kts 321°
2026-04-18 14:25 51.02465 5.12736 2399 ft 130 kts 321°
2026-04-18 14:25 51.03185 5.11888 2398 ft 129 kts 321°
2026-04-18 14:25 51.03913 5.11043 2395 ft 127 kts 321°
2026-04-18 14:25 51.04617 5.10228 2393 ft 127 kts 321°
2026-04-18 14:26 51.05288 5.09439 2388 ft 125 kts 321°
2026-04-18 14:26 51.05985 5.08619 2395 ft 125 kts 321°
2026-04-18 14:26 51.06685 5.07796 2394 ft 125 kts 321°
2026-04-18 14:26 51.07382 5.06967 2391 ft 124 kts 321°
2026-04-18 14:27 51.08064 5.06142 2393 ft 122 kts 321°
2026-04-18 14:27 51.08727 5.05338 2396 ft 118 kts 321°
2026-04-18 14:27 51.09377 5.04553 2391 ft 116 kts 321°
2026-04-18 14:27 51.10000 5.03793 2309 ft 112 kts 322°
2026-04-18 14:28 51.10614 5.03054 2146 ft 110 kts 321°
2026-04-18 14:28 51.11216 5.02337 1989 ft 106 kts 321°
2026-04-18 14:28 51.11804 5.01623 1830 ft 106 kts 321°
2026-04-18 14:28 51.12380 5.00909 1673 ft 104 kts 320°
2026-04-18 14:29 51.12946 5.00199 1519 ft 104 kts 320°
2026-04-18 14:29 51.13498 4.99512 1502 ft 98 kts 321°
2026-04-18 14:29 51.14048 4.98825 1513 ft 105 kts 321°
2026-04-18 14:29 51.14645 4.98087 1508 ft 111 kts 321°
2026-04-18 14:30 51.15247 4.97348 1507 ft 111 kts 321°
2026-04-18 14:30 51.15860 4.96594 1509 ft 111 kts 321°
2026-04-18 14:30 51.16474 4.95843 1511 ft 111 kts 321°
2026-04-18 14:30 51.17081 4.95103 1508 ft 109 kts 321°
2026-04-18 14:31 51.17687 4.94354 1509 ft 111 kts 321°
2026-04-18 14:31 51.18303 4.93590 1511 ft 114 kts 321°
2026-04-18 14:31 51.18925 4.92808 1514 ft 114 kts 321°
2026-04-18 14:31 51.19551 4.92026 1509 ft 114 kts 321°
2026-04-18 14:32 51.20176 4.91245 1506 ft 114 kts 321°
2026-04-18 14:32 51.20795 4.90467 1500 ft 113 kts 320°
2026-04-18 14:32 51.21406 4.89702 1500 ft 111 kts 321°
2026-04-18 14:32 51.22011 4.88949 1497 ft 110 kts 321°
2026-04-18 14:33 51.22604 4.88203 1502 ft 111 kts 321°
2026-04-18 14:33 51.23211 4.87444 1507 ft 111 kts 320°
2026-04-18 14:33 51.23819 4.86677 1512 ft 114 kts 321°
2026-04-18 14:33 51.24448 4.85852 1500 ft 120 kts 321°
2026-04-18 14:34 51.25109 4.84978 1511 ft 126 kts 320°
2026-04-18 14:34 51.25804 4.84072 1505 ft 130 kts 320°
2026-04-18 14:34 51.26521 4.83155 1503 ft 133 kts 321°
2026-04-18 14:34 51.27243 4.82229 1506 ft 132 kts 321°
2026-04-18 14:35 51.27945 4.81290 1493 ft 130 kts 320°
2026-04-18 14:35 51.28617 4.80389 1488 ft 122 kts 320°
2026-04-18 14:35 51.29248 4.79563 1489 ft 116 kts 320°
2026-04-18 14:35 51.29864 4.78753 1489 ft 113 kts 320°
2026-04-18 14:36 51.30480 4.77951 1492 ft 113 kts 320°
2026-04-18 14:36 51.31084 4.77179 1500 ft 113 kts 321°
2026-04-18 14:36 51.31729 4.76417 1502 ft 114 kts 323°
2026-04-18 14:36 51.32346 4.75683 1499 ft 109 kts 322°
2026-04-18 14:37 51.32938 4.74972 1492 ft 104 kts 322°
2026-04-18 14:37 51.33513 4.74279 1492 ft 104 kts 322°
2026-04-18 14:37 51.34088 4.73580 1491 ft 105 kts 322°
2026-04-18 14:37 51.34682 4.72900 1494 ft 106 kts 327°
2026-04-18 14:38 51.35306 4.72283 1499 ft 106 kts 327°
2026-04-18 14:38 51.35945 4.71644 1501 ft 109 kts 327°
2026-04-18 14:38 51.36589 4.70997 1505 ft 109 kts 327°
2026-04-18 14:38 51.37229 4.70365 1501 ft 108 kts 327°
2026-04-18 14:39 51.37876 4.69739 1500 ft 109 kts 327°
2026-04-18 14:39 51.38527 4.69113 1494 ft 109 kts 327°
2026-04-18 14:39 51.39176 4.68486 1492 ft 109 kts 327°
2026-04-18 14:39 51.39819 4.67860 1498 ft 108 kts 327°
2026-04-18 14:40 51.40452 4.67250 1498 ft 107 kts 327°
2026-04-18 14:40 51.41093 4.66640 1497 ft 106 kts 327°
2026-04-18 14:40 51.41731 4.66043 1499 ft 107 kts 327°
2026-04-18 14:40 51.42373 4.65436 1499 ft 107 kts 327°
2026-04-18 14:41 51.43019 4.64834 1500 ft 107 kts 327°
2026-04-18 14:41 51.43661 4.64238 1495 ft 107 kts 327°
2026-04-18 14:41 51.44306 4.63629 1497 ft 109 kts 327°
2026-04-18 14:41 51.44959 4.63009 1498 ft 109 kts 327°
2026-04-18 14:42 51.45606 4.62390 1498 ft 108 kts 327°
2026-04-18 14:42 51.46246 4.61753 1497 ft 108 kts 327°
2026-04-18 14:42 51.46889 4.61124 1496 ft 109 kts 327°
2026-04-18 14:42 51.47535 4.60506 1497 ft 108 kts 327°
2026-04-18 14:43 51.48181 4.59891 1493 ft 108 kts 327°
2026-04-18 14:43 51.48824 4.59258 1498 ft 109 kts 327°
2026-04-18 14:43 51.49439 4.58580 1441 ft 107 kts 319°
2026-04-18 14:43 51.50009 4.57808 1342 ft 108 kts 319°
2026-04-18 14:44 51.50591 4.57036 1290 ft 108 kts 320°
2026-04-18 14:44 51.51187 4.56281 1193 ft 110 kts 323°
2026-04-18 14:44 51.51828 4.55587 1120 ft 111 kts 325°
2026-04-18 14:44 51.52486 4.55031 1113 ft 108 kts 337°
2026-04-18 14:45 51.53206 4.54651 1020 ft 110 kts 346°
2026-04-18 14:45 51.53955 4.54499 938 ft 110 kts
2026-04-18 14:45 51.54582 4.55161 914 ft 115 kts 55°
2026-04-18 14:45 51.54809 4.55958 995 ft 116 kts 62°
2026-04-18 14:46 51.55368 4.57127 710 ft 97 kts
2026-04-18 14:46 51.55736 4.56855 483 ft 92 kts 293°
2026-04-18 14:46 51.55638 4.55856 114 ft 92 kts 248°
2026-04-18 14:46 51.55385 4.54917 253 ft 90 kts 249°
2026-04-18 14:47 51.55040 4.54107 446 ft 88 kts 245°
2026-04-18 14:47 51.54821 4.53189 621 ft 88 kts 253°
2026-04-18 14:47 51.54470 4.52421 713 ft 101 kts 190°
2026-04-18 14:47 51.54038 4.53280 701 ft 114 kts 86°
2026-04-18 14:48 51.54243 4.54450 765 ft 110 kts 63°
2026-04-18 14:48 51.54531 4.55553 834 ft 103 kts 63°
2026-04-18 14:48 51.54835 4.56624 902 ft 108 kts 57°
2026-04-18 14:48 51.55195 4.57668 798 ft 107 kts 57°
2026-04-18 14:49 51.55682 4.58322 701 ft 83 kts 354°
2026-04-18 14:49 51.56129 4.57855 550 ft 82 kts 283°
2026-04-18 14:49 51.55952 4.57037 333 ft 70 kts 256°
2026-04-18 14:49 51.55773 4.56333 138 ft 65 kts 250°
2026-04-18 14:50 51.55606 4.55719 36 ft 52 kts 245°
2026-04-18 14:50 51.55462 4.55192 36 ft 66 kts 246°
2026-04-18 14:50 51.55227 4.54445 170 ft 77 kts 236°
2026-04-18 14:50 51.54961 4.53676 336 ft 80 kts 251°
2026-04-18 14:51 51.54775 4.52842 488 ft 80 kts 257°
2026-04-18 14:51 51.54520 4.52040 659 ft 85 kts 221°
2026-04-18 14:51 51.53935 4.52205 691 ft 107 kts 123°
2026-04-18 14:51 51.53951 4.53354 641 ft 106 kts 64°
2026-04-18 14:52 51.54269 4.54405 665 ft 104 kts 58°
2026-04-18 14:52 51.54605 4.55442 648 ft 105 kts 59°
2026-04-18 14:52 51.54924 4.56496 650 ft 104 kts 63°
2026-04-18 14:52 51.55230 4.57514 659 ft 101 kts 59°
2026-04-18 14:53 51.55621 4.58266 669 ft 73 kts
2026-04-18 14:53 51.56002 4.57886 462 ft 74 kts 282°
2026-04-18 14:53 51.55923 4.57123 281 ft 65 kts 265°
2026-04-18 14:53 51.55806 4.56468 154 ft 60 kts 254°
2026-04-18 14:54 51.55639 4.55853 43 ft 58 kts 252°
2026-04-18 14:54 51.55516 4.55390 36 ft 33 kts 247°
2026-04-18 14:54 51.55444 4.55128 38 ft 14 kts 246°
2026-04-18 14:54 51.55460 4.55065 37 ft 7 kts 335°
2026-04-18 14:55 51.55491 4.55110 36 ft 7 kts 66°
2026-04-18 14:55 51.55528 4.55118 36 ft 5 kts 341°
2026-04-18 14:55 51.55549 4.55108 36 ft 0 kts 338°